Terminal Aerodrome Forecast
Issued by NWS

Home | Current Version | Previous Version | Text Only | Print | Product List | Glossary On
Versions: 1 2 3 4 5 6 7 8 9 10 11 12 13 14 15 16 17 18 19 20 21 22 23 24 25 26 27 28 29 30 31 32 33 34 35 36 37 38 39 40 41 42 43 44 45 46 47 48 49 50
000
FTUS41 KCTP 010552
TAFBFD
TAF
KBFD 010552Z 0106/0206 28005KT P6SM SCT017 OVC027
     FM010900 26004KT 6SM BR OVC023
     FM011000 VRB04KT 4SM -SN OVC015
     FM011300 VRB04KT 1SM -SN OVC007
     FM012300 11008G15KT 1/2SM SN FZFG OVC005=

USA.gov is the U.S. government's official web portal to all federal, state and local government web resources and services.